WetterOnline ( https://www.wetteronline.de )

Wetter aktuell Aytré

Aktuelles Wetter: La Roche-sur-Yon (90m)

6-stündlich | Neueste Meldungen
Ortszeit Temperatur Wetter
Mo, 30.01. 19:00 6.7° C bedeckt
Mo, 30.01. 13:00 6.5° C bedeckt
Mo, 30.01. 7:00 2.3° C bedeckt
Mo, 30.01. 1:00 0.4° C bedeckt
So, 29.01. 19:00 1.5° C -
So, 29.01. 13:00 3.8° C -
So, 29.01. 7:00 -2.5° C wolkig
So, 29.01. 1:00 0.5° C wolkig
Ortszeit Temperatur Wetter
Mo, 30.01. 21:00 6.8° C leichter Regen
Mo, 30.01. 20:00 6.7° C bedeckt
Mo, 30.01. 19:00 6.7° C bedeckt
Mo, 30.01. 18:00 6.9° C bedeckt
Mo, 30.01. 17:00 7.6° C bedeckt
Mo, 30.01. 16:00 8.0° C bedeckt
Mo, 30.01. 15:00 8.3° C bedeckt
Ortszeit Relative Feuchte Sichtweite
Mo, 30.01. 19:00 94% 12 km
Mo, 30.01. 13:00 89% 15 km
Mo, 30.01. 7:00 85% 18 km
Mo, 30.01. 1:00 88% 7 km
So, 29.01. 19:00 80% 14 km
So, 29.01. 13:00 70% 16 km
So, 29.01. 7:00 95% 6 km
So, 29.01. 1:00 76% 16 km
Ortszeit Relative Feuchte Sichtweite
Mo, 30.01. 21:00 98% 2.6 km
Mo, 30.01. 20:00 97% 4.3 km
Mo, 30.01. 19:00 94% 12 km
Mo, 30.01. 18:00 92% 19 km
Mo, 30.01. 17:00 87% 50 km
Mo, 30.01. 16:00 85% 45 km
Mo, 30.01. 15:00 82% 35 km
Ortszeit Niederschlagsmenge Niederschlagsart
Mo, 30.01. 19:00 0.1 l/m2 in 12 Std. -
Mo, 30.01. 13:00 0.1 l/m2 in 6 Std. -
Mo, 30.01. 7:00 0.0 l/m2 in 12 Std. -
Mo, 30.01. 1:00 0.0 l/m2 in 6 Std. -
So, 29.01. 19:00 0.1 l/m2 in 12 Std. -
So, 29.01. 13:00 0.1 l/m2 in 6 Std. -
So, 29.01. 7:00 0.0 l/m2 in 12 Std. -
So, 29.01. 1:00 0.0 l/m2 in 6 Std. -
Ortszeit Niederschlagsmenge Niederschlagsart
Mo, 30.01. 21:00 0.2 l/m2 in 1 Std. -
Mo, 30.01. 20:00 0.0 l/m2 in 1 Std. -
Mo, 30.01. 19:00 keine Meldung -
Mo, 30.01. 18:00 0.0 l/m2 in 1 Std. -
Mo, 30.01. 17:00 0.0 l/m2 in 1 Std. -
Mo, 30.01. 16:00 keine Meldung -
Mo, 30.01. 15:00 0.0 l/m2 in 1 Std. -
Ortszeit Stärke Spitze Richtung
km/h Bft. km/h Grad Sektor
Mo, 30.01. 19:00 11 2 19 200° S
Mo, 30.01. 13:00 17 3 26 210° SW
Mo, 30.01. 7:00 7 2 15 200° S
Mo, 30.01. 1:00 7 2 9 210° SW
So, 29.01. 19:00 0 0 6 - -
So, 29.01. 13:00 15 3 24 30° NO
So, 29.01. 7:00 7 2 9 30° NO
So, 29.01. 1:00 6 1 13 40° NO
Ortszeit Stärke Spitze Richtung
km/h Bft. km/h Grad Sektor
Mo, 30.01. 21:00 9 2 13 190° S
Mo, 30.01. 20:00 6 1 17 200° S
Mo, 30.01. 19:00 11 2 19 200° S
Mo, 30.01. 18:00 13 3 22 200° S
Mo, 30.01. 17:00 13 3 20 200° S
Mo, 30.01. 16:00 13 3 22 210° SW
Mo, 30.01. 15:00 15 3 26 210° SW
Ortszeit Untergrenze Bedeckung Gattung
total tief tief mittel hoch
Mo, 30.01. 19:00 - 8/8 - - - -
Mo, 30.01. 13:00 - 8/8 - - - -
Mo, 30.01. 7:00 - 8/8 - - - -
Mo, 30.01. 1:00 - 8/8 - - - -
So, 29.01. 19:00 - - - - - -
So, 29.01. 13:00 - - - - - -
So, 29.01. 7:00 - 6/8 - - - -
So, 29.01. 1:00 - 6/8 - - - -
Ortszeit Bedeckungsgrad in Achtel und Wolkenuntergrenze
Mo, 30.01. 21:00 8
Mo, 30.01. 20:00 8
Mo, 30.01. 19:00 8
Mo, 30.01. 18:00 8
Mo, 30.01. 17:00 8
Mo, 30.01. 16:00 8
Mo, 30.01. 15:00 8
Ortszeit Luftdruck NN (hPa) Tendenz (hPa in 3 Std.)
Mo, 30.01. 19:00 1031 + 0,9
Mo, 30.01. 13:00 1031 - 0,2
Mo, 30.01. 7:00 1031 + 0,1
Mo, 30.01. 1:00 1032 + 0,5
So, 29.01. 19:00 1031 + 0,7
So, 29.01. 13:00 1032 - 0,3
So, 29.01. 7:00 1032 + 0,1
So, 29.01. 1:00 1032 - 0,3
Ortszeit Luftdruck NN (hPa) Tendenz (hPa in 3 Std.)
Mo, 30.01. 21:00 1032 + 0,7
Mo, 30.01. 20:00 1032 + 0,7
Mo, 30.01. 19:00 1031 + 0,9
Mo, 30.01. 18:00 1031 + 0,6
Mo, 30.01. 17:00 1031 - 0,1
Mo, 30.01. 16:00 1030 - 1,1
Mo, 30.01. 15:00 1030 - 1,5
Ortszeit Schneehöhe (cm)
Mo, 30.01. 19:00 0
Mo, 30.01. 13:00 0
Mo, 30.01. 7:00 0
Mo, 30.01. 1:00 0
So, 29.01. 19:00 0
So, 29.01. 13:00 0
So, 29.01. 7:00 0
So, 29.01. 1:00 0
Ortszeit Schneehöhe (cm)
Mo, 30.01. 21:00 -
Mo, 30.01. 20:00 -
Mo, 30.01. 19:00 0
Mo, 30.01. 18:00 -
Mo, 30.01. 17:00 -
Mo, 30.01. 16:00 0
Mo, 30.01. 15:00 -
Link zu dieser Seite / Seite empfehlen

Das Wetter in ...